Wind_Speed
30 35 39 42 39 38 41 44 46 45 43 41 45 53 56 58 56 54 56 54 57 60 60 63 66 69 72 74 76 78 82 83 82 80 77 68 58 51 49 48 47 48 51 54
37 36 41 46 40 44 45 43 42 42 44 47 50 54 54 49 53 54 56 61 63 66 69 70 72 74 77 79 80 83 85 85 82 78 67 58 52 49 48 48 48 51 55 54
48 45 49 45 36 39 42 40 41 46 52 53 49 47 54 58 53 61 67 66 68 72 73 74 77 79 80 82 84 85 86 81 75 63 56 51 48 48 48 49 52 52 52 55
50 49 52 43 38 41 45 45 47 47 47 42 48 55 59 62 58 69 67 70 73 75 77 78 79 81 83 84 85 84 79 74 64 56 51 49 49 48 48 52 52 52 54 58
46 48 51 41 48 52 52 50 48 47 47 52 49 59 61 63 67 70 73 76 78 80 80 81 83 85 86 86 83 79 73 62 56 51 49 49 48 49 53 52 51 54 57 59
43 48 51 46 50 52 49 46 51 55 55 57 51 65 61 62 67 71 77 83 84 82 81 83 85 86 87 85 79 72 63 57 52 49 49 48 49 53 52 51 53 56 57 55
43 47 52 49 51 46 51 57 55 59 60 61 63 64 66 67 70 76 81 82 80 83 84 85 86 87 86 79 71 63 57 50 49 49 47 49 54 53 51 52 55 56 54 47
52 54 55 50 54 51 54 58 60 63 63 60 60 64 70 75 82 81 77 75 77 81 84 86 86 86 79 70 62 56 51 49 48 47 50 54 53 51 52 55 56 54 47 40
51 58 50 51 56 57 59 62 64 65 60 62 69 74 79 80 78 75 74 77 79 82 85 85 84 79 67 60 55 50 49 47 46 50 54 54 52 53 55 56 54 48 40 32
58 54 54 59 59 59 62 65 63 61 62 66 74 75 74 78 78 75 77 80 82 90 86 81 76 62 55 53 51 50 47 46 51 55 55 53 55 57 56 53 49 42 32 22
61 59 64 63 64 66 63 63 67 69 74 74 72 71 70 77 74 77 83 84 87 93 81 71 58 52 52 52 50 47 47 52 56 56 55 57 58 57 53 49 45 35 24 16
63 64 68 67 66 65 67 71 74 76 76 75 73 72 72 74 76 78 84 84 93 82 68 56 51 51 51 49 46 48 54 57 57 58 59 58 55 51 48 44 38 26 17 11
66 66 67 68 68 69 72 73 74 72 69 71 73 73 73 73 76 78 83 90 76 63 54 51 52 51 47 46 50 55 57 57 59 59 56 52 49 46 39 33 29 19 13 11
65 69 69 69 69 70 67 66 64 65 66 74 74 71 70 72 80 85 83 69 57 51 49 50 50 47 46 51 55 56 58 59 56 53 49 45 42 37 32 25 16 18 12 9
67 68 69 71 71 69 68 68 67 67 70 72 73 77 79 80 88 80 62 52 49 49 50 48 46 47 52 55 56 58 57 52 47 43 40 35 32 29 23 16 12 11 11 9
71 70 72 71 67 69 58 67 72 65 68 73 74 77 80 79 70 59 49 46 47 49 47 44 47 50 53 56 57 53 49 43 39 34 30 30 29 23 19 11 11 9 9 10
71 70 61 60 65 65 67 67 73 76 74 74 74 76 70 61 54 44 44 46 48 45 43 46 48 51 55 55 52 43 37 35 31 28 30 30 24 21 16 11 10 8 7 11
64 58 61 49 59 66 70 74 72 71 73 72 66 63 58 51 41 42 44 47 43 42 44 46 49 53 53 47 38 35 32 30 28 29 31 27 22 19 13 12 8 8 6 11
60 62 64 64 67 69 70 72 71 67 64 60 57 51 45 40 41 43 44 39 39 40 44 47 50 51 45 38 35 32 28 27 28 32 28 24 22 17 12 12 6 7 6 9
64 64 65 66 67 69 67 65 61 58 57 52 46 38 38 40 39 41 37 37 37 39 44 46 48 44 37 34 32 29 28 25 29 28 25 23 20 15 14 10 6 7 6 7
65 66 67 66 64 63 62 59 56 54 51 46 36 35 38 36 37 34 34 34 37 40 42 44 42 35 34 30 27 26 25 25 30 25 23 22 19 14 13 8 6 7 5 6
65 65 63 62 61 59 58 56 53 48 43 38 32 35 34 34 31 32 30 32 35 37 39 40 37 34 32 27 25 27 28 28 26 22 22 22 18 14 11 8 6 7 6 5
62 60 60 60 61 58 52 48 44 40 35 30 33 32 31 30 31 27 28 31 33 35 37 38 36 32 31 26 26 29 29 23 19 19 20 20 18 14 10 7 7 6 7 6
61 61 61 60 59 56 48 43 40 33 29 30 30 29 31 30 26 24 26 28 31 34 35 36 36 32 30 27 25 28 26 18 19 18 18 19 18 15 10 8 7 6 6 7
62 61 59 53 51 46 39 38 35 31 28 28 28 29 29 27 24 25 26 28 30 33 34 36 36 34 29 28 25 23 21 17 20 17 16 18 17 16 13 8 7 6 5 5
58 55 50 49 44 33 30 31 29 26 26 25 27 28 26 24 24 24 27 29 31 32 34 36 36 34 31 28 27 23 20 17 18 19 17 17 17 15 14 12 7 6 5 6
45 42 36 32 28 25 24 22 22 22 22 26 27 26 25 25 24 25 28 30 31 33 34 35 35 34 31 30 26 26 20 19 19 19 19 19 17 16 15 13 11 7 5 6
Wind_Direction
303 304 302 303 312 310 307 304 303 306 307 310 305 304 311 318 316 314 313 314 314 315 316 315 313 312 313 314 313 313 314 314 314 313 313 313 309 304 299 298 299 298 298 300
302 302 300 303 316 312 304 305 307 307 308 306 308 311 312 315 310 312 315 318 319 317 318 316 315 315 316 315 314 314 315 316 316 316 315 310 307 308 309 306 304 304 303 302
309 308 303 312 324 307 304 313 314 313 313 313 312 314 313 319 312 318 317 318 318 319 318 317 317 316 313 313 314 315 315 316 315 315 312 310 308 305 305 306 306 307 307 307
307 311 310 325 324 313 315 317 317 315 310 309 309 311 314 316 303 311 313 316 318 316 314 315 313 312 314 314 315 315 314 314 315 310 308 307 307 307 308 310 311 311 312 312
313 309 308 326 317 320 320 319 313 313 311 311 306 308 314 310 311 311 315 316 316 315 315 315 315 314 314 315 314 314 314 315 311 309 308 309 309 310 313 313 313 315 315 314
313 310 311 326 316 314 316 317 317 316 318 319 305 308 315 313 312 313 315 315 315 317 316 316 314 314 315 316 315 315 315 314 313 312 311 310 312 314 314 314 315 316 315 315
306 308 314 319 314 317 315 317 315 314 317 316 315 314 315 313 314 315 315 314 316 315 314 314 314 315 316 314 315 315 315 314 313 312 311 312 314 314 314 314 315 315 316 315
309 312 318 316 311 312 311 310 313 314 316 316 314 312 313 314 315 315 314 315 310 310 313 314 314 315 314 313 313 314 314 314 312 311 313 314 313 313 313 314 315 315 315 310
311 305 314 310 305 310 308 309 312 314 314 312 314 313 314 314 314 313 313 310 311 314 313 314 314 314 313 313 313 313 312 311 311 313 314 313 312 313 313 313 313 313 312 304
305 313 306 301 307 304 306 307 309 309 316 308 312 313 312 308 307 306 305 308 311 315 315 314 312 312 313 313 312 311 310 311 313 314 313 312 312 312 312 311 310 312 305 291
307 305 301 306 306 308 307 307 309 309 311 310 311 308 305 303 303 296 299 302 310 315 314 312 311 312 312 311 311 311 312 314 313 312 312 313 313 311 311 309 309 309 296 272
301 302 303 306 308 307 308 308 310 309 309 309 307 309 306 303 300 299 300 303 310 313 315 315 314 314 313 311 311 313 314 313 313 312 313 313 311 311 309 308 305 301 290 258
299 302 304 307 305 304 307 309 308 307 306 303 306 307 305 304 305 302 306 311 313 315 315 315 313 312 311 312 315 314 313 313 313 313 313 313 310 308 306 301 299 291 275 267
299 302 302 302 305 306 304 303 303 301 301 300 306 306 302 302 306 308 311 313 315 314 315 313 312 312 313 315 313 313 314 315 315 315 315 312 309 308 306 301 279 289 275 263
300 299 301 303 304 304 306 304 306 304 304 305 301 300 298 298 303 310 314 316 315 314 314 313 312 316 316 315 315 315 316 317 319 317 315 314 313 315 312 299 283 277 260 242
298 300 302 302 302 303 294 295 300 301 296 297 298 299 301 305 310 315 317 315 314 314 315 314 317 317 316 316 316 318 321 322 321 321 321 323 325 323 317 297 294 266 258 219
299 302 302 295 300 302 302 300 299 300 301 303 304 306 308 310 315 315 314 314 315 315 314 318 318 318 318 318 321 324 324 325 327 329 329 330 329 327 320 306 296 255 256 212
301 298 301 285 287 292 294 295 300 302 303 305 307 307 309 313 312 314 314 314 315 316 321 320 320 319 320 324 326 328 328 328 329 331 332 334 332 329 322 318 289 246 249 213
296 294 293 290 289 293 298 302 305 307 307 307 308 308 312 311 311 313 315 315 317 322 323 323 322 322 327 328 329 329 328 329 332 334 334 335 334 332 327 320 271 239 248 222
294 294 292 294 297 300 301 303 306 307 307 308 310 310 310 311 311 314 315 318 323 325 326 327 326 327 330 330 331 330 330 331 336 336 336 336 335 334 334 312 258 234 246 234
296 296 297 298 298 300 303 305 306 306 307 310 308 309 309 310 313 313 317 324 327 329 332 332 332 335 333 332 334 336 335 330 337 338 338 340 338 339 334 307 258 241 240 246
296 298 299 299 300 302 302 303 303 304 307 307 305 307 309 312 311 315 321 326 329 335 340 339 339 339 336 335 339 340 335 330 335 339 344 344 344 344 335 309 278 258 241 248
298 298 297 297 298 299 301 300 300 305 304 304 305 307 310 310 314 316 323 327 333 340 345 347 344 341 341 336 337 341 340 340 344 346 350 349 351 349 335 321 301 276 261 256
299 300 299 298 296 295 295 296 299 301 302 302 304 307 311 312 312 318 319 325 334 343 347 352 350 345 343 340 335 338 343 350 349 351 351 351 355 356 344 327 314 297 282 272
299 299 299 299 295 290 286 288 293 296 296 297 300 308 311 309 312 316 316 320 330 339 343 348 351 348 342 343 340 338 343 346 351 350 349 352 354 356 353 334 315 303 285 269
302 301 299 295 294 287 281 284 287 291 291 292 302 310 309 310 311 312 311 316 324 331 335 340 344 344 343 338 340 335 334 325 334 347 345 342 350 353 351 345 333 307 280 261
303 303 300 296 292 286 284 287 289 291 290 293 300 304 307 309 310 308 308 313 318 321 325 329 334 338 337 338 335 339 328 328 323 319 330 335 332 337 346 345 337 327 298 272
Height
5776 5770 5763 5759 5761 5758 5753 5746 5739 5737 5729 5725 5716 5706 5701 5694 5687 5682 5674 5668 5659 5650 5642 5632 5621 5610 5599 5588 5577 5563 5549 5540 5531 5521 5510 5501 5493 5485 5477 5469 5461 5454 5447 5440
5765 5764 5756 5750 5753 5746 5736 5731 5728 5723 5716 5709 5703 5696 5690 5685 5678 5669 5660 5652 5643 5634 5625 5614 5603 5592 5580 5567 5556 5544 5531 5519 5507 5497 5489 5481 5474 5466 5458 5452 5446 5439 5431 5423
5748 5748 5742 5744 5744 5732 5724 5723 5717 5709 5703 5696 5689 5683 5676 5669 5659 5652 5644 5636 5627 5618 5608 5596 5583 5571 5562 5552 5540 5530 5515 5503 5491 5482 5473 5465 5458 5453 5446 5439 5432 5424 5416 5407
5737 5734 5728 5733 5725 5718 5714 5708 5703 5699 5690 5684 5679 5673 5664 5657 5648 5644 5634 5624 5615 5602 5590 5580 5568 5557 5545 5535 5523 5511 5498 5486 5478 5469 5461 5454 5446 5439 5432 5425 5416 5409 5401 5391
5733 5725 5720 5725 5713 5707 5702 5700 5692 5686 5682 5674 5666 5663 5658 5647 5637 5624 5615 5605 5596 5585 5574 5563 5551 5539 5527 5516 5504 5493 5481 5471 5463 5455 5447 5440 5433 5426 5418 5410 5402 5394 5385 5376
5726 5717 5711 5714 5704 5698 5693 5690 5681 5672 5667 5661 5655 5647 5645 5634 5623 5613 5601 5588 5576 5567 5555 5544 5533 5520 5508 5497 5485 5475 5464 5456 5448 5441 5434 5427 5420 5413 5405 5397 5390 5382 5373 5363
5717 5710 5704 5701 5690 5686 5680 5675 5667 5661 5655 5648 5639 5630 5621 5614 5608 5599 5586 5572 5560 5548 5537 5527 5515 5502 5490 5478 5468 5458 5450 5443 5436 5428 5422 5415 5407 5399 5392 5386 5378 5369 5361 5353
5700 5696 5693 5687 5678 5675 5667 5660 5652 5648 5641 5633 5626 5618 5608 5596 5586 5578 5568 5557 5546 5534 5521 5509 5498 5485 5474 5462 5453 5445 5438 5431 5424 5418 5411 5403 5395 5388 5380 5373 5365 5357 5350 5343
5696 5686 5686 5676 5666 5664 5653 5646 5641 5633 5628 5620 5612 5603 5593 5581 5571 5562 5550 5539 5527 5517 5506 5492 5480 5467 5457 5448 5440 5434 5427 5420 5413 5406 5399 5390 5383 5376 5368 5360 5353 5347 5341 5335
5678 5681 5674 5663 5660 5651 5644 5636 5630 5622 5613 5606 5598 5588 5576 5565 5554 5544 5533 5522 5511 5500 5487 5475 5464 5454 5444 5437 5430 5423 5416 5409 5402 5394 5386 5378 5370 5362 5355 5348 5342 5337 5332 5328
5667 5663 5654 5655 5644 5637 5630 5623 5615 5608 5599 5589 5580 5570 5560 5548 5537 5526 5516 5505 5493 5481 5470 5460 5448 5441 5434 5425 5419 5411 5404 5397 5389 5381 5373 5365 5356 5348 5341 5334 5329 5327 5323 5321
5650 5647 5638 5637 5632 5620 5612 5605 5598 5591 5583 5571 5563 5552 5542 5531 5519 5509 5499 5488 5477 5463 5452 5443 5436 5430 5422 5414 5407 5400 5393 5385 5376 5367 5359 5351 5343 5336 5327 5321 5317 5316 5314 5313
5633 5630 5624 5620 5613 5608 5600 5593 5583 5572 5564 5553 5543 5534 5524 5514 5504 5494 5483 5472 5461 5449 5442 5433 5425 5418 5412 5404 5396 5389 5380 5372 5362 5353 5345 5337 5329 5323 5318 5311 5307 5307 5307 5306
5623 5615 5612 5604 5599 5591 5584 5576 5567 5556 5546 5537 5526 5516 5506 5497 5489 5479 5468 5456 5448 5439 5432 5423 5415 5408 5402 5395 5386 5377 5368 5359 5349 5339 5331 5324 5317 5311 5306 5303 5302 5300 5300 5301
5609 5601 5595 5588 5583 5573 5564 5554 5546 5537 5528 5518 5510 5501 5492 5483 5472 5463 5455 5445 5436 5429 5422 5414 5406 5398 5389 5381 5373 5364 5355 5346 5337 5329 5321 5314 5308 5303 5299 5297 5296 5296 5296 5296
5591 5586 5579 5570 5562 5554 5546 5537 5529 5522 5513 5503 5495 5486 5477 5466 5457 5448 5441 5435 5428 5420 5412 5404 5396 5388 5379 5371 5361 5351 5342 5334 5327 5320 5314 5308 5302 5298 5294 5292 5291 5291 5292 5292
5573 5565 5558 5552 5542 5536 5529 5520 5513 5505 5496 5486 5477 5469 5461 5451 5445 5438 5432 5426 5418 5410 5403 5396 5387 5378 5369 5359 5350 5342 5334 5327 5321 5315 5309 5303 5298 5294 5291 5289 5288 5288 5288 5289
5552 5545 5540 5532 5524 5519 5513 5506 5496 5489 5482 5471 5462 5454 5447 5442 5436 5430 5424 5416 5409 5401 5394 5386 5378 5368 5359 5350 5342 5335 5328 5322 5317 5311 5305 5299 5295 5291 5288 5287 5286 5285 5286 5287
5533 5527 5523 5518 5510 5501 5494 5486 5479 5472 5464 5457 5450 5443 5438 5432 5427 5422 5415 5408 5401 5394 5386 5378 5369 5359 5350 5342 5336 5330 5324 5318 5313 5307 5301 5296 5292 5288 5286 5284 5283 5283 5284 5284
5520 5513 5507 5499 5492 5485 5478 5471 5465 5458 5451 5445 5438 5433 5429 5424 5418 5412 5406 5400 5394 5387 5379 5370 5361 5352 5344 5337 5331 5325 5320 5315 5310 5304 5298 5294 5290 5286 5284 5281 5281 5282 5282 5282
5501 5494 5488 5481 5475 5471 5463 5457 5452 5446 5439 5433 5429 5425 5420 5415 5410 5404 5399 5393 5387 5380 5372 5363 5354 5347 5340 5333 5328 5322 5317 5312 5307 5301 5296 5292 5288 5285 5282 5280 5280 5280 5280 5280
5484 5476 5471 5465 5459 5457 5451 5445 5439 5434 5428 5424 5420 5416 5411 5407 5402 5397 5392 5387 5381 5374 5366 5358 5349 5343 5336 5330 5325 5320 5314 5309 5304 5299 5295 5290 5286 5283 5280 5279 5278 5278 5278 5279
5467 5461 5455 5450 5444 5440 5437 5432 5427 5423 5419 5415 5412 5408 5403 5399 5395 5390 5386 5381 5376 5369 5362 5355 5347 5340 5334 5328 5323 5317 5311 5306 5302 5298 5294 5290 5286 5283 5280 5278 5277 5277 5277 5277
5448 5443 5437 5432 5426 5422 5421 5419 5416 5413 5410 5407 5404 5400 5396 5392 5388 5384 5380 5376 5371 5365 5358 5352 5345 5337 5332 5326 5320 5315 5310 5305 5302 5298 5294 5290 5286 5283 5280 5278 5276 5276 5275 5275
5431 5425 5419 5414 5408 5405 5405 5405 5405 5403 5401 5398 5395 5392 5388 5385 5381 5378 5374 5370 5365 5360 5355 5349 5343 5336 5330 5324 5319 5314 5309 5306 5302 5298 5294 5291 5287 5283 5280 5278 5276 5274 5274 5273
5414 5407 5401 5396 5393 5392 5393 5394 5394 5393 5391 5390 5388 5384 5381 5378 5375 5372 5369 5365 5360 5355 5351 5346 5340 5334 5328 5322 5317 5312 5308 5305 5301 5298 5294 5291 5287 5284 5281 5278 5276 5274 5272 5272
5399 5393 5389 5386 5384 5383 5384 5385 5385 5384 5383 5382 5380 5377 5374 5371 5368 5366 5363 5359 5355 5351 5346 5341 5336 5331 5325 5320 5315 5310 5305 5302 5299 5296 5293 5290 5287 5284 5280 5277 5275 5273 5271 5270